SCP
0 0 0 -0 -0 0 0 0 0 0 0 0 -0 -0 -0 -0 -0 -0 -0 0 -0 0 0 0 0 0 0 0 0 0 0 -0 0 0 0 0 0 0 0 0 0 0 0 0 0 0 0
0 0 0 0 0 0 0 0 0 0 0 0 0 -0 -0 -0 0 -0 -0 0 -0 -0 0 0 0 0 0 0 0 0 0 0 0 0 0 0 0 0 0 0 0 0 0 0 0 0 0
0 0 0 0 0 -0 0 0 0 0 0 0 0 0 -0 -0 -0 0 -0 -0 -0 -0 -0 0 0 0 0 0 0 0 0 0 0 0 0 0 0 0 0 0 0 0 0 0 0 0 0
0 0 0 0 0 -0 0 0 0 0 0 0 0 0 -0 0 0 0 -0 -0 -0 0 0 0 0 0 0 0 0 0 0 0 0 0 0 0 0 0 0 0 0 0 0 0 0 0 0
0 0 0 0 0 0 0 0 0 0 0 0 0 -0 0 0 0 0 0 -0 -0 -0 -0 0 0 0 0 0 0 0 0 0 0 0 0 0 0 0 0 0 0 0 0 0 0 0 0
0 0 0 0 0 0 0 0 0 0 0 0 0 0 0 0 0 0 0 -0 0 0 0 0 0 0 0 0 -0 0 0 0 0 0 0 0 0 0 0 0 0 0 0 0 0 0 0
0 0 0 0 0 0 0 0 0 0 0 0 0 0 0 0 0 0 0 0 0 0 0 0 0 0 0 0 0 0 0 0 0 0 0 0 0 0 0 0 0 0 0 0 0 0 0
0 0 0 0 0 0 0 0 0 0 0 0 0 0 0 0 -0 0 -0 0 0 0 0 0 0 0 0 0 0 0 0 0 0 0 0 0 0 0 0 0 0 0 0 0 0 0 0
0 0 0 0 0 0 0 0 0 0 0 0 0 0 0 0 0 0 0 0 0 0 0 0 0 0 0 0 0 0 0 0 0 0 0 0 0 0 0 0 0 0 0 0 0 0 0
0 0 0 0 0 0 0 0 0 0 0 0 0 0 0 0 0 0 0 0 0 0 0 -0 0 0 0 0 0 0 0 0 0 0 0 0 0 0 0 0 0 0 0 0 0 0 0
0 0 0 0 0 0 0 0 0 0 0 0 0 0 0 0 0 0 0 0 0 0 0 -0 -0 0 0 0 0 0 0 0 0 0 0 0 0 0 0 0 0 0 0 0 -0 0 0
0 0 0 0 0 0 0 0 0 0 0 0 0 0 0 0 0 0 0 0 0 0 0 0 0 0 0 0 0 0 0 0 0 0 0 0 0 0 0 0 0 0 0 -0 0 0 0
0 0 0 0 0 0 0 0 0 0 0 0 0 0 0 0 0 0 0 0 0 0 0 0 0 0 0 0 0 0 0 0 0 0 0 0 -0 0 0 -0 0 -0 0 0 0 0 -0
0 0 0 0 0 0 0 0 0 0 0 0 0 0 0 0 0 0 0 0 0 0 0 0 0 0 0 0 0 0 0 0 0 0 0 0 0 -0 -0 -0 0 -0 -0 -0 0 -0 0
0 0 0 0 0 0 0 0 0 0 0 0 0 0 0 0 0 0 0 0 0 0 0 0 0 0 0 0 0 0 0 0 0 0 -0 -0 -0 0 -0 -0 -0 -0 -0 -0 -0 -0 -0
0 0 0 0 0 0 0 0 0 0 0 0 0 0 0 0 0 0 0 0 0 0 0 0 0 0 0 0 0 0 0 0 0 0 0 0 -0 -0 0 0 -0 0 0 -0 0 -0 0
0 0 0 0 0 0 0 0 0 0 0 0 0 0 0 0 0 0 0 0 0 0 0 0 0 0 0 0 0 0 0 0 0 0 0 0 0 0 0 0 0 0 0 0 0 0 0
0 0 0 0 0 0 0 0 0 0 0 0 0 0 -0 0 0 0 0 0 0 0 0 0 0 0 0 0 0 0 0 0 0 0 0 0 0 0 0 0 0 0 0 0 0 0 0
0 0 0 0 0 0 0 0 0 0 0 0 0 0 0 0 0 0 0 0 0 0 0 0 0 0 0 0 0 0 0 0 0 0 0 0 0 0 0 0 0 0 0 0 0 0 0
0 0 0 0 0 0 0 0 0 0 0 0 0 0 -0 0 0 0 0 0 0 0 0 0 0 0 0 0 0 0 0 0 0 0 0 0 0 0 0 0 0 0 0 0 -0 0 0
0 0 0 0 0 0 0 0 0 0 0 0 0 0 0 0 0 0 0 0 0 0 0 0 0 0 0 0 0 0 0 0 0 0 0 0 0 0 0 0 0 -0 -0 0 -0 -0 0
0 0 0 0 0 0 0 0 0 -0 0 0 0 0 0 0 0 0 0 0 0 0 0 0 0 0 0 0 0 0 0 0 0 0 0 0 0 0 0 0 0 -0 0 -0 0 -0 0
0 0 0 0 0 0 0 0 0 0 0 0 0 0 0 0 0 0 -0 -0 0 0 0 0 0 0 0 0 0 0 0 0 0 0 0 0 0 0 0 -0 0 -0 -0 -0 0 0 0
0 0 0 0 0 0 0 0 0 0 0 0 0 0 0 0 0 0 0 0 -0 -0 0 -0 0 0 -0 -0 -0 0 0 0 0 0 0 0 0 0 0 -0 0 0 0 0 0 0 0
0 0 0 0 0 0 0 0 0 0 0 0 0 0 0 0 0 0 0 0 0 -0 -0 -0 -0 -0 -0 -0 -0 0 0 0 0 0 0 0 0 0 -0 -0 0 0 0 0 0 0 0
0 0 0 0 0 0 0 0 0 0 0 0 0 0 0 0 0 0 0 0 0 0 -0 0 -0 -0 -0 -0 0 0 0 0 0 0 0 0 0 0 0 0 0 0 0 0 0 0 0
0 0 0 0 0 0 0 0 0 0 0 0 0 0 0 0 0 0 0 0 0 0 -0 -0 -0 0 0 -0 0 0 0 0 0 0 0 0 0 0 0 0 0 0 0 0 0 0 0
0 0 0 0 0 0 0 0 0 0 0 0 0 0 0 0 0 0 0 0 0 0 0 0 -0 0 0 0 0 0 0 0 0 0 0 0 0 0 0 0 0 0 0 0 0 0 0
0 0 0 0 0 0 0 0 0 0 0 0 0 0 0 0 0 0 0 0 0 0 0 0 0 0 0 0 0 0 0 0 0 0 0 0 0 0 0 0 0 0 0 0 0 0 0
Wind_Speed_500mb
45 50 52 52 54 59 60 57 55 52 47 48 44 45 32 25 17 15 8 1 4 6 13 16 17 38 36 24 16 10 20 38 30 31 29 25 21 13 13 11 11 7 6 7 15 18 27
49 49 51 52 61 61 59 55 50 46 43 39 34 28 25 18 13 9 9 7 7 5 14 24 34 46 26 23 23 27 39 40 35 30 27 24 14 17 21 9 5 5 6 15 18 23 19
47 47 48 59 62 59 56 51 48 48 39 37 34 30 26 28 17 9 3 2 6 9 13 29 31 37 30 21 34 20 26 32 28 21 30 23 28 9 19 15 8 2 8 12 14 6 6
47 50 49 60 63 60 55 43 44 45 39 36 35 31 29 24 19 22 19 8 19 27 25 26 40 32 23 31 20 35 44 37 28 27 27 24 19 22 9 16 7 4 5 6 8 5 2
48 50 49 57 59 61 63 54 41 43 42 42 37 32 28 23 24 27 47 38 45 38 41 43 39 44 17 29 27 22 27 33 28 24 25 20 11 11 9 6 6 3 3 7 6 4 3
48 49 49 55 59 62 63 62 51 44 42 43 38 36 31 25 29 42 66 60 58 56 46 39 44 21 15 25 28 37 35 21 17 22 17 9 8 5 5 2 2 4 2 8 14 2 15
51 50 51 52 55 58 60 61 54 48 45 48 36 34 33 28 45 54 50 32 17 31 62 35 39 50 41 35 36 36 20 19 14 8 6 6 4 7 7 7 9 6 5 15 21 13 19
62 50 53 50 50 52 53 55 57 55 46 45 43 35 33 31 38 21 9 29 30 29 32 54 53 46 28 23 19 15 9 5 5 12 9 6 9 6 11 10 5 3 10 15 17 2 19
65 57 51 51 49 47 48 50 55 56 51 44 45 31 31 31 24 21 55 47 38 29 17 28 35 28 16 13 13 9 10 6 8 9 4 6 12 14 9 9 6 9 15 10 12 22 19
65 63 54 51 50 45 44 44 47 51 54 44 42 42 21 27 23 31 29 32 21 10 9 23 19 14 14 6 10 5 7 5 3 6 4 5 7 9 6 8 11 11 8 13 14 18 9
63 63 59 51 49 46 43 45 46 44 45 49 44 39 40 27 23 20 24 12 9 0 9 17 11 11 13 10 11 2 5 8 5 4 6 6 9 10 5 8 17 6 7 16 22 19 17
62 61 61 58 50 46 44 43 44 47 38 37 39 33 30 34 27 28 8 18 6 1 12 6 12 9 6 7 5 3 3 4 5 4 2 6 0 7 11 8 22 15 20 22 10 6 8
60 60 60 61 57 48 46 44 44 39 36 29 29 30 24 17 12 3 14 14 3 13 2 5 5 4 6 8 5 2 2 4 5 3 10 10 6 4 10 7 3 9 9 4 6 7 5
59 59 59 60 60 54 45 45 44 38 29 19 29 30 25 18 9 6 13 5 19 7 10 2 2 5 7 7 4 2 1 5 2 3 3 6 3 10 14 8 1 6 4 5 8 5 15
57 60 59 59 61 56 47 45 42 36 33 16 8 30 30 24 21 14 14 13 6 2 1 3 5 1 4 3 3 3 2 3 2 12 1 3 1 5 14 5 4 5 7 1 7 8 7
60 57 62 58 59 58 52 47 37 33 30 15 7 16 28 25 33 24 13 12 4 3 4 4 3 2 3 2 2 1 2 6 4 10 8 2 7 4 4 8 9 9 4 6 5 6 6
54 57 58 62 59 61 56 47 31 33 25 14 8 7 17 17 26 24 9 8 3 4 3 4 4 2 3 3 3 4 1 8 10 12 10 4 3 0 4 11 9 4 3 5 4 5 5
46 55 56 58 59 61 56 50 36 33 23 12 12 6 16 7 7 6 6 3 1 3 2 3 5 5 3 2 3 2 4 5 8 11 5 7 5 9 6 7 13 1 0 4 7 8 7
43 46 53 54 55 57 50 43 39 32 26 10 9 6 15 11 4 4 7 8 6 4 5 4 3 5 5 4 3 4 2 3 13 10 4 7 4 9 5 7 9 10 10 8 6 6 12
47 42 48 51 51 52 48 40 36 31 26 10 9 2 10 12 10 3 5 4 8 6 7 3 6 2 2 3 3 6 7 2 5 5 10 7 6 13 9 10 4 9 9 13 17 8 6
49 39 41 46 48 46 46 39 35 30 24 7 6 6 5 5 9 8 7 1 5 7 3 4 7 7 3 2 2 3 6 8 4 8 2 5 9 6 23 27 19 17 20 14 26 22 12
46 40 36 40 43 42 42 36 35 30 18 17 5 7 10 7 3 8 6 2 5 3 6 5 8 10 10 5 5 5 2 5 2 4 3 2 6 7 11 5 16 22 24 24 19 24 25
40 43 34 33 37 37 36 34 31 27 22 12 10 8 7 4 5 1 2 3 6 7 5 6 4 4 9 9 14 21 22 17 8 4 3 3 8 9 8 9 18 22 30 30 13 13 11
34 40 35 27 29 33 31 29 27 23 22 20 10 1 2 6 8 7 4 3 2 9 12 10 6 8 11 22 25 9 12 20 22 24 20 6 3 3 9 13 7 5 6 1 17 14 22
32 37 38 25 23 26 27 24 23 18 19 19 17 7 3 3 6 9 14 9 5 6 7 8 9 12 26 18 8 9 5 5 12 15 23 20 5 6 6 6 24 2 4 4 6 6 7
30 34 36 28 20 20 21 19 17 16 17 19 18 11 6 4 8 3 7 10 6 6 6 9 10 13 9 3 4 6 6 7 3 4 3 7 14 10 6 7 10 6 8 10 5 10 7
29 31 33 30 25 18 18 17 13 12 14 16 15 16 9 8 8 13 10 7 9 3 5 5 4 4 2 3 6 6 5 3 7 6 8 7 10 20 18 13 15 9 10 10 7 4 1
29 31 29 27 25 19 17 18 16 12 10 12 14 14 16 8 24 19 20 17 12 9 5 1 4 3 4 7 5 3 6 2 5 6 6 9 6 9 5 9 12 12 10 9 9 3 5
32 33 31 26 26 26 18 18 20 18 14 12 11 18 23 18 19 26 28 29 34 22 11 11 4 3 7 4 5 3 7 6 5 8 6 9 9 6 10 6 6 15 10 10 17 22 26
Wind_Direction_500mb
13 10 8 6 2 359 359 359 359 2 13 19 36 47 59 82 108 142 158 122 110 151 159 144 140 176 162 112 81 152 179 161 163 157 160 146 148 137 140 140 134 192 176 242 262 265 270
11 11 14 9 3 1 358 0 357 3 8 16 27 42 36 41 68 123 174 202 153 164 173 156 133 154 151 99 99 128 156 162 151 159 152 151 153 132 116 121 206 138 227 260 268 269 259
9 11 15 8 6 1 359 2 4 359 5 10 17 26 46 15 52 73 63 61 128 156 160 158 141 140 125 95 101 137 157 124 130 154 139 127 136 137 127 130 126 143 283 262 250 247 256
10 11 20 12 8 4 4 5 9 3 9 11 10 22 34 57 33 75 67 59 127 119 126 133 135 129 98 121 116 109 107 110 125 126 129 117 117 103 95 124 118 199 234 247 156 210 189
10 11 19 15 10 12 15 15 18 10 12 13 10 29 40 54 72 86 78 91 105 93 114 130 126 113 109 131 118 127 151 116 123 120 118 124 114 95 120 166 160 73 269 290 278 215 252
12 12 13 17 14 13 16 18 20 21 16 17 22 45 43 65 98 103 97 94 88 75 91 100 118 87 47 98 131 127 118 121 105 114 102 75 71 110 87 154 234 132 319 286 272 69 292
12 12 9 15 18 14 15 19 25 28 23 25 33 33 43 83 117 113 109 112 76 56 59 64 79 88 100 92 116 116 110 108 104 99 90 51 149 96 105 91 87 93 286 286 286 307 296
13 8 13 13 17 16 18 20 27 27 25 29 35 42 58 89 133 113 93 97 96 110 63 60 66 77 83 92 107 116 90 75 75 96 108 164 101 73 119 140 159 224 294 292 299 213 304
12 13 11 16 12 17 20 27 27 32 21 34 39 39 58 79 128 125 114 108 114 109 84 35 41 46 45 72 97 118 17 48 76 90 87 61 105 124 142 156 199 241 254 282 281 314 273
14 12 13 14 14 12 16 30 31 36 31 31 46 45 69 95 116 116 105 104 104 91 82 7 11 34 22 70 70 54 42 35 94 83 137 75 123 183 204 243 221 281 207 267 293 332 314
14 12 10 13 13 12 11 9 24 20 27 28 41 52 70 95 125 122 124 74 345 77 72 350 8 5 1 58 127 116 270 351 52 21 240 105 170 181 223 248 190 281 224 278 287 282 296
11 12 9 10 10 12 10 8 10 21 29 30 38 51 67 83 107 130 140 340 345 161 65 3 357 8 58 348 59 72 333 332 298 318 260 281 257 256 249 241 221 306 309 291 248 240 241
10 11 10 7 11 6 10 10 8 19 32 33 39 51 54 76 98 122 336 343 67 56 164 35 53 300 24 63 96 32 342 11 6 352 19 329 220 228 223 265 174 237 281 271 209 213 303
13 8 11 7 5 5 5 9 10 14 18 38 45 56 55 62 64 24 16 53 64 21 63 116 6 320 64 5 109 116 50 10 139 255 9 36 134 194 193 248 11 212 222 311 298 297 318
14 10 9 9 4 4 4 2 13 11 11 34 39 57 63 73 75 61 60 58 83 208 101 177 181 15 73 340 354 13 252 317 250 212 46 332 263 170 207 209 243 104 223 52 275 228 261
4 12 7 9 6 3 357 356 12 15 18 62 92 46 42 75 79 82 66 86 77 342 297 229 353 255 124 144 235 268 349 140 199 188 232 8 297 176 135 184 219 220 352 219 187 283 277
5 5 11 5 7 3 1 359 31 23 35 85 87 35 14 54 70 63 65 83 50 324 300 267 354 335 44 196 239 220 277 185 206 164 181 342 294 308 215 202 180 195 213 189 304 253 292
6 2 6 9 6 7 9 12 40 29 46 86 74 47 347 357 15 71 102 109 22 36 326 316 287 290 285 193 273 272 347 331 161 156 213 210 304 275 258 171 197 98 266 202 256 172 233
3 4 2 9 7 9 13 12 16 32 23 75 79 66 6 334 107 80 131 130 133 80 36 23 326 5 356 355 313 333 329 29 170 193 253 166 223 294 216 177 167 240 186 227 244 294 234
354 5 1 4 11 9 14 15 11 16 29 67 110 55 35 56 48 80 137 116 140 152 133 148 18 187 349 45 16 309 334 215 314 224 246 205 256 245 275 325 351 267 253 213 210 218 212
343 2 3 359 7 11 12 17 15 12 28 59 62 99 64 24 29 358 346 335 162 167 193 109 133 90 178 346 287 349 333 310 160 0 161 249 272 246 262 267 250 255 265 232 214 242 241
337 354 6 357 1 11 14 18 16 16 17 46 80 138 109 103 35 352 340 249 248 247 221 207 175 176 154 170 213 251 233 229 300 344 359 354 285 316 288 299 227 255 255 236 236 247 251
333 341 1 357 355 6 15 17 26 19 28 44 77 98 134 147 129 245 25 329 291 315 251 308 298 227 225 244 237 262 256 254 241 261 287 289 315 331 274 349 304 268 252 211 211 224 242
329 334 353 354 350 359 11 19 24 28 29 37 32 77 209 157 196 193 175 131 330 335 315 322 274 282 353 316 301 265 236 242 238 233 223 221 236 217 286 318 266 25 24 139 226 257 224
322 327 340 351 342 352 3 15 24 19 17 21 17 2 308 261 254 192 196 192 239 233 230 257 265 274 319 326 293 282 210 221 210 222 213 218 221 233 261 268 286 206 179 209 225 279 257
311 319 330 346 332 340 349 359 17 12 3 11 10 358 321 287 228 207 183 197 221 212 217 221 257 287 316 343 291 290 299 347 274 163 85 195 264 250 181 240 251 149 173 168 174 261 350
302 311 323 337 338 317 331 334 349 358 354 357 8 8 347 295 258 199 204 200 182 218 271 285 254 183 174 231 251 248 262 310 279 260 185 204 219 234 240 256 282 165 158 147 200 114 211
291 300 310 321 329 315 311 319 318 326 331 331 328 337 344 291 284 249 231 204 192 196 230 112 286 195 159 212 237 245 248 254 268 269 255 230 226 216 201 238 280 138 124 222 22 23 298
283 291 297 305 314 311 298 307 305 305 306 311 316 317 320 293 271 273 255 241 232 226 205 209 239 213 219 208 206 229 232 211 242 273 181 252 241 317 236 278 5 213 296 253 315 305 293
Wind_Speed_850mb
45 50 52 52 54 59 60 57 55 52 47 48 44 45 32 25 17 15 8 1 4 6 13 16 17 38 36 24 16 10 20 38 30 31 29 25 21 13 13 11 11 7 6 7 15 18 27
49 49 51 52 61 61 59 55 50 46 43 39 34 28 25 18 13 9 9 7 7 5 14 24 34 46 26 23 23 27 39 40 35 30 27 24 14 17 21 9 5 5 6 15 18 23 19
47 47 48 59 62 59 56 51 48 48 39 37 34 30 26 28 17 9 3 2 6 9 13 29 31 37 30 21 34 20 26 32 28 21 30 23 28 9 19 15 8 2 8 12 14 6 6
47 50 49 60 63 60 55 43 44 45 39 36 35 31 29 24 19 22 19 8 19 27 25 26 40 32 23 31 20 35 44 37 28 27 27 24 19 22 9 16 7 4 5 6 8 5 2
48 50 49 57 59 61 63 54 41 43 42 42 37 32 28 23 24 27 47 38 45 38 41 43 39 44 17 29 27 22 27 33 28 24 25 20 11 11 9 6 6 3 3 7 6 4 3
48 49 49 55 59 62 63 62 51 44 42 43 38 36 31 25 29 42 66 60 58 56 46 39 44 21 15 25 28 37 35 21 17 22 17 9 8 5 5 2 2 4 2 8 14 2 15
51 50 51 52 55 58 60 61 54 48 45 48 36 34 33 28 45 54 50 32 17 31 62 35 39 50 41 35 36 36 20 19 14 8 6 6 4 7 7 7 9 6 5 15 21 13 19
62 50 53 50 50 52 53 55 57 55 46 45 43 35 33 31 38 21 9 29 30 29 32 54 53 46 28 23 19 15 9 5 5 12 9 6 9 6 11 10 5 3 10 15 17 2 19
65 57 51 51 49 47 48 50 55 56 51 44 45 31 31 31 24 21 55 47 38 29 17 28 35 28 16 13 13 9 10 6 8 9 4 6 12 14 9 9 6 9 15 10 12 22 19
65 63 54 51 50 45 44 44 47 51 54 44 42 42 21 27 23 31 29 32 21 10 9 23 19 14 14 6 10 5 7 5 3 6 4 5 7 9 6 8 11 11 8 13 14 18 9
63 63 59 51 49 46 43 45 46 44 45 49 44 39 40 27 23 20 24 12 9 0 9 17 11 11 13 10 11 2 5 8 5 4 6 6 9 10 5 8 17 6 7 16 22 19 17
62 61 61 58 50 46 44 43 44 47 38 37 39 33 30 34 27 28 8 18 6 1 12 6 12 9 6 7 5 3 3 4 5 4 2 6 0 7 11 8 22 15 20 22 10 6 8
60 60 60 61 57 48 46 44 44 39 36 29 29 30 24 17 12 3 14 14 3 13 2 5 5 4 6 8 5 2 2 4 5 3 10 10 6 4 10 7 3 9 9 4 6 7 5
59 59 59 60 60 54 45 45 44 38 29 19 29 30 25 18 9 6 13 5 19 7 10 2 2 5 7 7 4 2 1 5 2 3 3 6 3 10 14 8 1 6 4 5 8 5 15
57 60 59 59 61 56 47 45 42 36 33 16 8 30 30 24 21 14 14 13 6 2 1 3 5 1 4 3 3 3 2 3 2 12 1 3 1 5 14 5 4 5 7 1 7 8 7
60 57 62 58 59 58 52 47 37 33 30 15 7 16 28 25 33 24 13 12 4 3 4 4 3 2 3 2 2 1 2 6 4 10 8 2 7 4 4 8 9 9 4 6 5 6 6
54 57 58 62 59 61 56 47 31 33 25 14 8 7 17 17 26 24 9 8 3 4 3 4 4 2 3 3 3 4 1 8 10 12 10 4 3 0 4 11 9 4 3 5 4 5 5
46 55 56 58 59 61 56 50 36 33 23 12 12 6 16 7 7 6 6 3 1 3 2 3 5 5 3 2 3 2 4 5 8 11 5 7 5 9 6 7 13 1 0 4 7 8 7
43 46 53 54 55 57 50 43 39 32 26 10 9 6 15 11 4 4 7 8 6 4 5 4 3 5 5 4 3 4 2 3 13 10 4 7 4 9 5 7 9 10 10 8 6 6 12
47 42 48 51 51 52 48 40 36 31 26 10 9 2 10 12 10 3 5 4 8 6 7 3 6 2 2 3 3 6 7 2 5 5 10 7 6 13 9 10 4 9 9 13 17 8 6
49 39 41 46 48 46 46 39 35 30 24 7 6 6 5 5 9 8 7 1 5 7 3 4 7 7 3 2 2 3 6 8 4 8 2 5 9 6 23 27 19 17 20 14 26 22 12
46 40 36 40 43 42 42 36 35 30 18 17 5 7 10 7 3 8 6 2 5 3 6 5 8 10 10 5 5 5 2 5 2 4 3 2 6 7 11 5 16 22 24 24 19 24 25
40 43 34 33 37 37 36 34 31 27 22 12 10 8 7 4 5 1 2 3 6 7 5 6 4 4 9 9 14 21 22 17 8 4 3 3 8 9 8 9 18 22 30 30 13 13 11
34 40 35 27 29 33 31 29 27 23 22 20 10 1 2 6 8 7 4 3 2 9 12 10 6 8 11 22 25 9 12 20 22 24 20 6 3 3 9 13 7 5 6 1 17 14 22
32 37 38 25 23 26 27 24 23 18 19 19 17 7 3 3 6 9 14 9 5 6 7 8 9 12 26 18 8 9 5 5 12 15 23 20 5 6 6 6 24 2 4 4 6 6 7
30 34 36 28 20 20 21 19 17 16 17 19 18 11 6 4 8 3 7 10 6 6 6 9 10 13 9 3 4 6 6 7 3 4 3 7 14 10 6 7 10 6 8 10 5 10 7
29 31 33 30 25 18 18 17 13 12 14 16 15 16 9 8 8 13 10 7 9 3 5 5 4 4 2 3 6 6 5 3 7 6 8 7 10 20 18 13 15 9 10 10 7 4 1
29 31 29 27 25 19 17 18 16 12 10 12 14 14 16 8 24 19 20 17 12 9 5 1 4 3 4 7 5 3 6 2 5 6 6 9 6 9 5 9 12 12 10 9 9 3 5
32 33 31 26 26 26 18 18 20 18 14 12 11 18 23 18 19 26 28 29 34 22 11 11 4 3 7 4 5 3 7 6 5 8 6 9 9 6 10 6 6 15 10 10 17 22 26
Wind_Direction_850mb
13 10 8 6 2 359 359 359 359 2 13 19 36 47 59 82 108 142 158 122 110 151 159 144 140 176 162 112 81 152 179 161 163 157 160 146 148 137 140 140 134 192 176 242 262 265 270
11 11 14 9 3 1 358 0 357 3 8 16 27 42 36 41 68 123 174 202 153 164 173 156 133 154 151 99 99 128 156 162 151 159 152 151 153 132 116 121 206 138 227 260 268 269 259
9 11 15 8 6 1 359 2 4 359 5 10 17 26 46 15 52 73 63 61 128 156 160 158 141 140 125 95 101 137 157 124 130 154 139 127 136 137 127 130 126 143 283 262 250 247 256
10 11 20 12 8 4 4 5 9 3 9 11 10 22 34 57 33 75 67 59 127 119 126 133 135 129 98 121 116 109 107 110 125 126 129 117 117 103 95 124 118 199 234 247 156 210 189
10 11 19 15 10 12 15 15 18 10 12 13 10 29 40 54 72 86 78 91 105 93 114 130 126 113 109 131 118 127 151 116 123 120 118 124 114 95 120 166 160 73 269 290 278 215 252
12 12 13 17 14 13 16 18 20 21 16 17 22 45 43 65 98 103 97 94 88 75 91 100 118 87 47 98 131 127 118 121 105 114 102 75 71 110 87 154 234 132 319 286 272 69 292
12 12 9 15 18 14 15 19 25 28 23 25 33 33 43 83 117 113 109 112 76 56 59 64 79 88 100 92 116 116 110 108 104 99 90 51 149 96 105 91 87 93 286 286 286 307 296
13 8 13 13 17 16 18 20 27 27 25 29 35 42 58 89 133 113 93 97 96 110 63 60 66 77 83 92 107 116 90 75 75 96 108 164 101 73 119 140 159 224 294 292 299 213 304
12 13 11 16 12 17 20 27 27 32 21 34 39 39 58 79 128 125 114 108 114 109 84 35 41 46 45 72 97 118 17 48 76 90 87 61 105 124 142 156 199 241 254 282 281 314 273
14 12 13 14 14 12 16 30 31 36 31 31 46 45 69 95 116 116 105 104 104 91 82 7 11 34 22 70 70 54 42 35 94 83 137 75 123 183 204 243 221 281 207 267 293 332 314
14 12 10 13 13 12 11 9 24 20 27 28 41 52 70 95 125 122 124 74 345 77 72 350 8 5 1 58 127 116 270 351 52 21 240 105 170 181 223 248 190 281 224 278 287 282 296
11 12 9 10 10 12 10 8 10 21 29 30 38 51 67 83 107 130 140 340 345 161 65 3 357 8 58 348 59 72 333 332 298 318 260 281 257 256 249 241 221 306 309 291 248 240 241
10 11 10 7 11 6 10 10 8 19 32 33 39 51 54 76 98 122 336 343 67 56 164 35 53 300 24 63 96 32 342 11 6 352 19 329 220 228 223 265 174 237 281 271 209 213 303
13 8 11 7 5 5 5 9 10 14 18 38 45 56 55 62 64 24 16 53 64 21 63 116 6 320 64 5 109 116 50 10 139 255 9 36 134 194 193 248 11 212 222 311 298 297 318
14 10 9 9 4 4 4 2 13 11 11 34 39 57 63 73 75 61 60 58 83 208 101 177 181 15 73 340 354 13 252 317 250 212 46 332 263 170 207 209 243 104 223 52 275 228 261
4 12 7 9 6 3 357 356 12 15 18 62 92 46 42 75 79 82 66 86 77 342 297 229 353 255 124 144 235 268 349 140 199 188 232 8 297 176 135 184 219 220 352 219 187 283 277
5 5 11 5 7 3 1 359 31 23 35 85 87 35 14 54 70 63 65 83 50 324 300 267 354 335 44 196 239 220 277 185 206 164 181 342 294 308 215 202 180 195 213 189 304 253 292
6 2 6 9 6 7 9 12 40 29 46 86 74 47 347 357 15 71 102 109 22 36 326 316 287 290 285 193 273 272 347 331 161 156 213 210 304 275 258 171 197 98 266 202 256 172 233
3 4 2 9 7 9 13 12 16 32 23 75 79 66 6 334 107 80 131 130 133 80 36 23 326 5 356 355 313 333 329 29 170 193 253 166 223 294 216 177 167 240 186 227 244 294 234
354 5 1 4 11 9 14 15 11 16 29 67 110 55 35 56 48 80 137 116 140 152 133 148 18 187 349 45 16 309 334 215 314 224 246 205 256 245 275 325 351 267 253 213 210 218 212
343 2 3 359 7 11 12 17 15 12 28 59 62 99 64 24 29 358 346 335 162 167 193 109 133 90 178 346 287 349 333 310 160 0 161 249 272 246 262 267 250 255 265 232 214 242 241
337 354 6 357 1 11 14 18 16 16 17 46 80 138 109 103 35 352 340 249 248 247 221 207 175 176 154 170 213 251 233 229 300 344 359 354 285 316 288 299 227 255 255 236 236 247 251
333 341 1 357 355 6 15 17 26 19 28 44 77 98 134 147 129 245 25 329 291 315 251 308 298 227 225 244 237 262 256 254 241 261 287 289 315 331 274 349 304 268 252 211 211 224 242
329 334 353 354 350 359 11 19 24 28 29 37 32 77 209 157 196 193 175 131 330 335 315 322 274 282 353 316 301 265 236 242 238 233 223 221 236 217 286 318 266 25 24 139 226 257 224
322 327 340 351 342 352 3 15 24 19 17 21 17 2 308 261 254 192 196 192 239 233 230 257 265 274 319 326 293 282 210 221 210 222 213 218 221 233 261 268 286 206 179 209 225 279 257
311 319 330 346 332 340 349 359 17 12 3 11 10 358 321 287 228 207 183 197 221 212 217 221 257 287 316 343 291 290 299 347 274 163 85 195 264 250 181 240 251 149 173 168 174 261 350
302 311 323 337 338 317 331 334 349 358 354 357 8 8 347 295 258 199 204 200 182 218 271 285 254 183 174 231 251 248 262 310 279 260 185 204 219 234 240 256 282 165 158 147 200 114 211
291 300 310 321 329 315 311 319 318 326 331 331 328 337 344 291 284 249 231 204 192 196 230 112 286 195 159 212 237 245 248 254 268 269 255 230 226 216 201 238 280 138 124 222 22 23 298
283 291 297 305 314 311 298 307 305 305 306 311 316 317 320 293 271 273 255 241 232 226 205 209 239 213 219 208 206 229 232 211 242 273 181 252 241 317 236 278 5 213 296 253 315 305 293